Location: Unspecified
(50.1700°N, 6.8600°E)
Time: 12:30:42
(UTC+00:00)

Cosmos 2279 Rocket - Pass Details

Date: 24 January 2019
Orbit: 963 x 980 km, 82.9° (Epoch: 17 October)

Event Time Altitude Azimuth Distance (km) Brightness Sun altitude
Rises 05:44:58 0° 347° (NNW) 3,671 6.8 -14.6°
Reaches altitude 10° 05:47:32 10° 343° (NNW) 2,718 6.0 -14.2°
Maximum altitude 05:53:32 53° 268° (W) 1,170 4.1 -13.3°
Drops below altitude 10° 05:59:30 10° 193° (SSW) 2,695 6.3 -12.4°
Sets 06:02:02 0° 189° (S) 3,637 7.1 -12.0°
